This demonstration page uses our WeatherBlox Daily Observations layout. Learn more.

Left ArrowRight Arrow

Hourly Observations for November 30, 2019

Temp ( °F °C ) Dew Point ( °F °C ) Humidity (%) Winds ( mph kmh ) Pressure ( in mb ) Visibility ( mi km ) Precip ( " mm )
12:52 am 00:52 Cloudy with Drizzle 37 2.8 35 1.7 93 93 SE 16 26 29.75 1007 4 6 0.00 0.00
1:52 am 01:52 Cloudy with Drizzle 37 2.8 36 2.2 96 96 SE 18 30 29.71 1006 10 16 0.00 0.00
2:52 am 02:52 Cloudy with Drizzle 38 3.3 36 2.2 93 93 SE 15 24 29.66 1005 5 8 0.00 0.00
3:52 am 03:52 Cloudy with Drizzle 38 3.3 37 2.8 97 97 SE 15 24 29.61 1003 10 16 0.00 0.00
4:29 am 04:29 Cloudy with Drizzle 38 3.3 37 2.8 97 97 SE 13 20 29.62 1003 3 4 0.00 0.00
4:52 am 04:52 Cloudy with Drizzle 38 3.3 37 2.8 97 97 SE 13 20 29.56 1001 3 4 0.01 0.25
5:05 am 05:05 Cloudy with Drizzle 38 3.3 38 3.3 100 100 SSE 12 19 29.59 1002 3 5 0.00 0.00
5:27 am 05:27 Cloudy with Drizzle 39 3.9 38 3.3 96 96 SE 17 28 29.58 1002 3 4 0.00 0.00
5:52 am 05:52 Cloudy with Drizzle 39 3.9 38 3.3 96 96 SSE 16 26 29.55 1001 3 4 0.01 0.25
5:59 am 05:59 Cloudy with Drizzle 39 3.9 38 3.3 96 96 SSE 17 28 29.57 1001 4 6 0.00 0.00
6:52 am 06:52 Cloudy 40 4.4 38 3.3 93 93 SSE 23 37 29.50 999 10 16 0.00 0.00
7:52 am 07:52 Cloudy 41 5 39 3.9 93 93 SSE 23 37 29.47 998 10 16 0.00 0.00
8:52 am 08:52 Cloudy 42 5.6 41 5 96 96 SSE 16 26 29.45 997 10 16 0.00 0.00
9:52 am 09:52 Cloudy 44 6.7 42 5.6 93 93 SSE 18 30 29.40 996 10 16 0.00 0.00
11:59 am 11:59 Partly Cloudy 50 10 43 6.1 77 77 S 20 31 29.28 992 10 16 0.00 0.00
12:52 pm 12:52 Mostly Cloudy 51 10.6 38 3.3 61 61 S 22 35 29.26 991 10 16 0.00 0.00
1:52 pm 13:52 Mostly Cloudy 52 11.1 35 1.7 53 53 S 18 30 29.23 990 10 16 0.00 0.00
2:52 pm 14:52 Mostly Cloudy 50 10 33 0.6 52 52 SSW 14 22 29.22 990 10 16 0.00 0.00
3:52 pm 15:52 Mostly Cloudy 44 6.7 34 1.1 68 68 SW 21 33 29.25 991 10 16 0.00 0.00
4:21 pm 16:21 Cloudy with Light Rain 41 5 36 2.2 82 82 SW 21 33 29.28 992 10 16 0.00 0.00
4:52 pm 16:52 Cloudy with Light Rain 39 3.9 36 2.2 89 89 SW 21 33 29.28 992 10 16 0.01 0.25
5:52 pm 17:52 Cloudy 39 3.9 33 0.6 79 79 SW 10 17 29.29 992 10 16 0.00 0.00
6:52 pm 18:52 Cloudy 38 3.3 32 0 79 79 SW 20 31 29.28 991 10 16 0.00 0.00
7:52 pm 19:52 Cloudy 37 2.8 30 -1.1 76 76 SW 16 26 29.26 991 10 16 0.00 0.00
8:52 pm 20:52 Cloudy 37 2.8 31 -0.6 79 79 SW 10 17 29.26 991 10 16 0.00 0.00
9:44 pm 21:44 Cloudy 37 2.8 32 0 82 82 WSW 5 7 29.29 992 10 16 0.00 0.00
9:52 pm 21:52 Cloudy 37 2.8 32 0 82 82 Calm 29.26 991 10 16 0.00 0.00
10:52 pm 22:52 Cloudy 36 2.2 34 1.1 93 93 NNW 8 13 29.30 992 10 16 0.00 0.00
11:52 pm 23:52 Cloudy with Light Rain 36 2.2 34 1.1 93 93 NW 15 24 29.35 994 10 16 0.01 0.25

Powered by AerisWeather